Sarasota, FL

4:16 AM EST on November 18, 2019 (GMT -0500)
Sarasota-bradenton

Weather History for KSRQ - September, 2019

Change the Weather History Date:

Friday, September 13, 2019

  Actual Average Record
Temperature  
Mean Temperature 86 °F 82 °F  
Max Temperature 93 °F 89 °F 95 °F (1963)
Min Temperature 80 °F 75 °F 65 °F (1956)
Degree Days  
Heating Degree Days 0 0  
Month to date heating degree days 0 0  
Since 1 July heating degree days 0 0  
Cooling Degree Days 22 17  
Month to date cooling degree days 284 221  
Year to date cooling degree days 3142 2518  
Growing Degree Days 36 (Base 50)    
Moisture  
Dew Point 74 °F    
Average Humidity 71    
Maximum Humidity 85    
Minimum Humidity 52    
Precipitation  
Precipitation T in 0.25 in 1.79 in (1979)
Month to date precipitation 0.83 3.85  
Year to date precipitation 42.22 42.18  
Sea Level Pressure  
Sea Level Pressure 29.96 in    
Wind  
Wind Speed 9 mph ()    
Max Wind Speed 25 mph    
Max Gust Speed 37 mph    
Visibility 10.0 miles    
Events Rain , Thunderstorm    
T = Trace of Precipitation, MM = Missing Value Source: Averaged Metar Reports

Daily Weather History Graph

Daily Weather History Graph

Search for Another Location

Airport or City:

Astronomy

Sep. 13, 2019 Rise Set
Actual Time 7:14 AM EDT 7:37 PM EDT
Civil Twilight 6:51 AM EDT 8:00 PM EDT
Nautical Twilight 6:23 AM EDT 8:28 PM EDT
Astronomical Twilight 5:56 AM EDT 8:55 PM EDT
Moon 7:43 PM EDT (9/13) 6:39 AM EDT (9/13)
Length of Visible Light 13h 09m
Length of Day
12h 22m
Full, 100% of the Moon is Illuminated
Sep 13
Full
Sep 14
Full
Sep 21
Last Quarter
Sep 28
New
Oct 5
First Quarter

Hourly Weather History & Observations

Time (EDT) Temp. Heat Index Dew Point Humidity Pressure Visibility Wind Dir Wind Speed Gust Speed Precip Events Conditions
12:53 AM 81.0 °F 86.2 °F 73.9 °F 79% 29.97 in 10.0 mi NE 5.8 mph - N/A   Clear
1:53 AM 81.0 °F 86.2 °F 73.9 °F 79% 29.96 in 10.0 mi NE 5.8 mph - N/A   Clear
2:53 AM 80.1 °F 84.5 °F 73.9 °F 81% 29.95 in 10.0 mi NE 6.9 mph - N/A   Clear
3:53 AM 81.0 °F 86.7 °F 75.0 °F 82% 29.94 in 10.0 mi NE 6.9 mph - N/A   Clear
4:53 AM 81.0 °F 86.7 °F 75.0 °F 82% 29.94 in 10.0 mi ENE 9.2 mph - N/A   Clear
5:53 AM 82.0 °F 88.6 °F 75.0 °F 79% 29.95 in 10.0 mi NE 8.1 mph - N/A   Clear
6:53 AM 81.0 °F 86.7 °F 75.0 °F 82% 29.96 in 10.0 mi NE 5.8 mph - N/A   Clear
7:53 AM 81.0 °F 86.7 °F 75.0 °F 82% 29.98 in 10.0 mi NE 5.8 mph - N/A   Clear
8:53 AM 84.0 °F 91.9 °F 75.0 °F 74% 29.99 in 10.0 mi ENE 10.4 mph - N/A   Clear
9:53 AM 87.1 °F 96.3 °F 75.0 °F 67% 29.99 in 10.0 mi ENE 15.0 mph - N/A   Clear
10:53 AM 88.0 °F 97.5 °F 75.0 °F 65% 30.00 in 10.0 mi ENE 13.8 mph - N/A   Mostly Cloudy
11:53 AM 91.0 °F 100.4 °F 73.9 °F 57% 29.99 in 10.0 mi ENE 15.0 mph 26.5 mph N/A   Mostly Cloudy
12:53 PM 91.0 °F 97.6 °F 71.1 °F 52% 29.97 in 10.0 mi East 18.4 mph 28.8 mph 0.00 in   Scattered Clouds
1:53 PM 91.9 °F 101.3 °F 73.9 °F 55% 29.96 in 10.0 mi East 19.6 mph 29.9 mph N/A   Partly Cloudy
2:06 PM 91.0 °F 101.6 °F 75.0 °F 59% 29.97 in 10.0 mi ENE 23.0 mph 36.8 mph N/A Thunderstorm Mostly Cloudy
2:20 PM 84.0 °F 91.2 °F 73.9 °F 72% 29.97 in 10.0 mi ENE 17.3 mph 28.8 mph 0.00 in Thunderstorm Thunderstorm
2:35 PM 86.0 °F 93.8 °F 73.9 °F 67% 29.97 in 10.0 mi ENE 10.4 mph 21.9 mph 0.00 in Thunderstorm Mostly Cloudy
2:53 PM 84.0 °F 90.2 °F 73.0 °F 69% 29.96 in 10.0 mi ENE 13.8 mph - 0.00 in Thunderstorm Partly Cloudy
3:03 PM 88.0 °F 96.5 °F 73.9 °F 63% 29.95 in 10.0 mi ENE 13.8 mph 21.9 mph N/A   Partly Cloudy
3:53 PM 88.0 °F 96.5 °F 73.9 °F 63% 29.94 in 10.0 mi ENE 13.8 mph 24.2 mph N/A   Partly Cloudy
4:53 PM 82.9 °F 88.8 °F 73.0 °F 72% 29.95 in 10.0 mi ESE 20.7 mph - 0.00 in Rain Light Rain
5:00 PM 81.0 °F 86.2 °F 73.9 °F 79% 29.95 in 10.0 mi ESE 15.0 mph - 0.00 in Rain Light Rain
5:53 PM 82.9 °F 90.2 °F 75.0 °F 77% 29.94 in 10.0 mi ENE 9.2 mph - 0.00 in Rain Light Rain
6:53 PM 86.0 °F 93.8 °F 73.9 °F 67% 29.94 in 10.0 mi East 11.5 mph - 0.00 in   Partly Cloudy
7:53 PM 84.9 °F 91.4 °F 73.0 °F 67% 29.93 in 10.0 mi ENE 11.5 mph - N/A   Clear
8:53 PM 84.0 °F 90.2 °F 73.0 °F 69% 29.96 in 10.0 mi ENE 12.7 mph - N/A   Clear
9:53 PM 82.0 °F 87.9 °F 73.9 °F 76% 29.99 in 10.0 mi ENE 9.2 mph - N/A   Clear
10:53 PM 82.0 °F 87.9 °F 73.9 °F 76% 30.01 in 10.0 mi NE 6.9 mph - N/A   Clear
11:53 PM 81.0 °F 86.2 °F 73.9 °F 79% 29.99 in 10.0 mi ENE 10.4 mph - N/A   Clear